Flag for U.S.A. Weather past 2 weeks in Sedona, Arizona, U.S.A.

Now
70 °F

Sunny.


Feels Like: 70 °F
Forecast: 62 / 79 °F
Wind: No wind

Location: Sedona Airport

Current Time: Sep 18, 2014 at 9:25:55 AM

Latest Report: Sep 18, 2014 at 8:55 AM


Visibility: 10 mi

Pressure: 30.04 "Hg

Humidity: 69%

Dew point: 59 °F

Location of SedonaLocation

Historic Weather in Sedona — Graph

°F

Sedona temperature yesterday

Maximum temperature yesterday: 77 °F (at 11:15 AM)
Minimum temperature yesterday: 64 °F (at 12:15 AM)
Average temperature yesterday: 68 °F

Past Weeks' High & Low Weather Summary

 TemperatureHumidityPressure
High91 °F (Sep 3, 2:55 PM)100% (Sep 8, 6:55 AM)30.21 "Hg (Sep 8, 6:55 AM)
Low61 °F (Sep 10, 3:55 AM)14% (Sep 11, 4:35 PM)29.93 "Hg (Sep 3, 5:15 PM)
Average74 °F49%30.10 "Hg
* Reported Sep 3 8:15 AM — Sep 18 8:15 AM, Sedona, Weather by CustomWeather, © 2014

Note: Actual official high and low records may vary slightly from our data, if they occured in-between our weather recording intervals... More about our weather records

Advertising

Sedona weather history for previous 24 hours

 ConditionsComfort  
Time TempWeatherWind HumidityBarometerVisibility
8:15 AM
Sep 18
68 °FSunny.No wind73%30.04 "Hg10 mi
7:55 AM66 °FSunny.No wind73%30.03 "Hg10 mi
7:35 AM66 °FSunny.No wind73%30.03 "Hg10 mi
7:15 AM64 °FSunny.No wind78%30.03 "Hg10 mi
6:55 AM63 °FSunny.No wind77%30.02 "Hg10 mi
6:35 AM63 °FSunny.No wind77%30.02 "Hg10 mi
6:15 AM63 °FSunny.5 mph77%30.00 "Hg10 mi
5:55 AM63 °FClear.No wind77%30.00 "Hg10 mi
5:35 AM63 °FClear.No wind77%30.00 "Hg10 mi
5:15 AM63 °FClear.No wind77%30.00 "Hg10 mi
4:55 AM63 °FClear.No wind77%30.00 "Hg10 mi
4:35 AM63 °FClear.7 mph77%30.00 "Hg10 mi
4:15 AM64 °FClear.5 mph73%30.00 "Hg10 mi
3:55 AM64 °FClear.9 mph73%30.00 "Hg10 mi
3:15 AM64 °FClear.10 mph73%30.00 "Hg10 mi
2:55 AM63 °FClear.8 mph77%30.00 "Hg10 mi
2:35 AM63 °FClear.7 mph77%30.00 "Hg10 mi
2:15 AM64 °FClear.7 mph73%30.01 "Hg10 mi
1:55 AM64 °FClear.No wind78%30.02 "Hg10 mi
1:35 AM64 °FClear.No wind78%30.02 "Hg10 mi
1:15 AM64 °FClear.No wind78%30.02 "Hg10 mi
12:55 AM64 °FClear.No wind78%30.02 "Hg10 mi
12:15 AM66 °FClear.No wind73%30.02 "Hg10 mi
11:55 PM
Sep 17
66 °FClear.No wind73%30.02 "Hg10 mi
11:35 PM64 °FClear.6 mph78%30.02 "Hg10 mi
11:15 PM64 °FClear.8 mph78%30.02 "Hg10 mi
10:55 PM66 °FClear.5 mph78%30.02 "Hg10 mi
10:15 PM68 °FClear.8 mph73%30.02 "Hg10 mi
9:55 PM68 °FClear.8 mph73%30.03 "Hg10 mi
9:15 PM68 °FClear.8 mph73%30.03 "Hg10 mi
8:55 PM68 °FClear.7 mph73%30.04 "Hg10 mi
8:15 PM64 °FClear.7 mph88%30.03 "Hg10 mi
7:55 PM64 °FClear.8 mph88%30.03 "Hg10 mi
7:35 PM66 °FClear.6 mph83%30.02 "Hg10 mi
7:15 PM66 °FPassing clouds.8 mph83%30.02 "Hg10 mi
6:55 PM66 °FMostly cloudy.8 mph83%30.02 "Hg10 mi
6:35 PM64 °FPartly cloudy.8 mph94%30.02 "Hg10 mi
6:15 PM64 °FMostly cloudy.9 mph94%30.02 "Hg10 mi
5:55 PM64 °FMore clouds than sun.5 mph88%30.02 "Hg10 mi
5:35 PM64 °FLight rain. Cloudy.3 mph88%30.02 "Hg7 mi
5:15 PM70 °FRain. More clouds than sun.5 mph73%30.02 "Hg10 mi
4:55 PM70 °FCloudy.10 mph73%30.02 "Hg10 mi
4:15 PM72 °FCloudy.20 mph73%30.01 "Hg10 mi
3:55 PM77 °FCloudy.15 mph61%30.01 "Hg10 mi
3:35 PM75 °FOvercast.9 mph69%30.01 "Hg10 mi
3:15 PM73 °FOvercast.No wind69%30.02 "Hg10 mi
2:55 PM73 °FPartly sunny.No wind69%30.02 "Hg10 mi
2:35 PM73 °FPartly sunny.5 mph69%30.02 "Hg10 mi
2:15 PM70 °FBroken clouds.7 mph73%30.03 "Hg10 mi
1:55 PM68 °FLight rain. Cloudy.3 mph83%30.05 "Hg10 mi
1:35 PM66 °FLight rain. Cloudy.8 mph88%30.06 "Hg10 mi
1:15 PM68 °FRain. Cloudy.12 mph83%30.06 "Hg10 mi
12:55 PM72 °FMore clouds than sun.13 mph69%30.06 "Hg10 mi
12:35 PM77 °FCloudy.7 mph57%30.06 "Hg10 mi
12:15 PM77 °FMostly cloudy.6 mph57%30.06 "Hg10 mi
11:55 AM77 °FPartly sunny.3 mph57%30.08 "Hg10 mi
11:35 AM77 °FBroken clouds.3 mph54%30.08 "Hg10 mi
11:15 AM77 °FCloudy.5 mph54%30.09 "Hg10 mi
10:55 AM73 °FOvercast.No wind61%30.09 "Hg10 mi
10:35 AM75 °FMore clouds than sun.3 mph57%30.10 "Hg10 mi
10:15 AM73 °FOvercast.No wind65%30.09 "Hg10 mi
9:35 AM72 °FOvercast.No wind69%30.09 "Hg10 mi
9:15 AM72 °FOvercast.No wind69%30.10 "Hg10 mi
Weather by CustomWeather, © 2014

See weather overviewHow to use our weather pages